This is the latest recevied weather packets stored in our database for station/object W4NDF-13. If no packets are shown the sender has not sent any weather packets the latest 10 day(s).
| Time | Temp. | Humidity | Pressure | Rain* | Wind** | Luminosity | Snow |
|---|---|---|---|---|---|---|---|
| 1777931390 | 25° C | 44% | 1016.3 hPa | 0 mm | - | 420 W/m² | - |
| 1777931086 | 24.44° C | 44% | 1016.1 hPa | 0 mm | - | 431 W/m² | - |
| 1777930783 | 24.44° C | 43% | 1016.1 hPa | 0 mm | - | 435 W/m² | - |
| 1777930479 | 25° C | 43% | 1016.3 hPa | 0 mm | - | 422 W/m² | - |
| 1777930177 | 24.44° C | 43% | 1016.3 hPa | 0 mm | - | 325 W/m² | - |
| 1777929872 | 24.44° C | 43% | 1016.2 hPa | 0 mm | - | 447 W/m² | - |
| 1777929571 | 24.44° C | 43% | 1016.6 hPa | 0 mm | - | 524 W/m² | - |
| 1777929266 | 24.44° C | 42% | 1016.5 hPa | 0 mm | - | 529 W/m² | - |
| 1777928964 | 25° C | 41% | 1016.2 hPa | 0 mm | - | 562 W/m² | - |
| 1777928661 | 25° C | 41% | 1016.2 hPa | 0 mm | - | 557 W/m² | - |
| 1777928358 | 25.56° C | 39% | 1016.2 hPa | 0 mm | - | 569 W/m² | - |
| 1777928056 | 25° C | 40% | 1016.3 hPa | 0 mm | - | 581 W/m² | - |
| 1777927754 | 25° C | 39% | 1016.6 hPa | 0 mm | - | 595 W/m² | - |
| 1777927452 | 25° C | 39% | 1016.5 hPa | 0 mm | - | 608 W/m² | - |
| 1777927151 | 25° C | 40% | 1016.5 hPa | 0 mm | - | 622 W/m² | - |
| 1777926848 | 25° C | 41% | 1016.7 hPa | 0 mm | - | 634 W/m² | - |
| 1777926543 | 25.56° C | 38% | 1016.9 hPa | 0 mm | - | 663 W/m² | - |
| 1777926240 | 25.56° C | 38% | 1017 hPa | 0 mm | - | 680 W/m² | - |
| 1777925937 | 25° C | 41% | 1017 hPa | 0 mm | - | 677 W/m² | - |
| 1777925634 | 25° C | 39% | 1017 hPa | 0 mm | - | 684 W/m² | - |
| 1777925332 | 24.44° C | 40% | 1017 hPa | 0 mm | - | 694 W/m² | - |
| 1777925028 | 25.56° C | 41% | 1017.3 hPa | 0 mm | - | 701 W/m² | - |
| 1777924725 | 25° C | 39% | 1017.4 hPa | 0 mm | - | 711 W/m² | - |
| 1777924420 | 25° C | 38% | 1017.8 hPa | 0 mm | - | 721 W/m² | - |
| 1777924117 | 25° C | 39% | 1017.5 hPa | 0 mm | - | 731 W/m² | - |
* Rain latest hour (hover to see other rain measurements)
** Current wind speed in m/s (hover to see current wind gust speed)